Phoenix, AZ

1:21 AM MST on December 06, 2016 (GMT -0700)
Phoenix-Deer Valley Municipal

Weather History for KDVT - March, 2012

Change the Weather History Date:

Saturday, March 31, 2012

  Actual Average Record
Temperature  
Mean Temperature 74 °F -  
Max Temperature 88 °F 72 °F 91 °F (2011)
Min Temperature 61 °F 50 °F 44 °F (1998)
Cooling Degree Days 10    
Growing Degree Days 24 (Base 50)    
Moisture  
Dew Point 29 °F    
Average Humidity 19    
Maximum Humidity 33    
Minimum Humidity 11    
Precipitation  
Precipitation 0.00 in - - ()
Sea Level Pressure  
Sea Level Pressure 29.80 in    
Wind  
Wind Speed 5 mph (South)    
Max Wind Speed 16 mph    
Max Gust Speed 28 mph    
Visibility 10 miles    
Events      
Averages and records for this station are not official NWS values.
T = Trace of Precipitation, MM = Missing Value Source: NWS Daily Summary

Daily Weather History Graph

Daily Weather History Graph

Search for Another Location

Airport or City:

Trip Planner

Search our weather history database for the weather conditions in past years. The results will help you decide how hot, cold, wet, or windy it might be!

Date:

Astronomy

Mar. 31, 2012 Rise Set
Actual Time 6:16 AM MST 6:48 PM MST
Civil Twilight 5:51 AM MST 7:13 PM MST
Nautical Twilight 5:21 AM MST 7:43 PM MST
Astronomical Twilight 4:51 AM MST 8:13 PM MST
Moon 12:37 PM MST (3/31) 1:57 AM MST (3/31)
Length of Visible Light 13h 22m
Length of Day
12h 32m
First Quarter, 60% of the Moon is Illuminated
Mar 31
First Quarter
Apr 6
Full
Apr 13
Last Quarter
Apr 21
New
Apr 29
First Quarter

Hourly Weather History & Observations

Time (MST) Temp. Dew Point Humidity Pressure Visibility Wind Dir Wind Speed Gust Speed Precip Events Conditions
12:53 AM 68.0 °F 30.0 °F 24% 29.83 in 10.0 mi Calm Calm - N/A   Clear
1:53 AM 64.0 °F 30.9 °F 29% 29.84 in 10.0 mi Calm Calm - N/A   Clear
2:53 AM 66.0 °F 30.9 °F 27% 29.83 in 10.0 mi North 4.6 mph - N/A   Clear
3:53 AM 64.9 °F 30.9 °F 28% 29.83 in 10.0 mi NNE 8.1 mph - N/A   Clear
4:53 AM 61.0 °F 30.9 °F 32% 29.84 in 10.0 mi Calm Calm - N/A   Clear
5:53 AM 63.0 °F 33.1 °F 33% 29.85 in 10.0 mi East 8.1 mph - N/A   Clear
6:53 AM 63.0 °F 30.9 °F 30% 29.87 in 10.0 mi East 5.8 mph - N/A   Clear
7:53 AM 66.9 °F 30.0 °F 25% 29.89 in 10.0 mi East 5.8 mph - N/A   Clear
8:53 AM 73.0 °F 30.0 °F 20% 29.89 in 10.0 mi SE 6.9 mph - N/A   Clear
9:53 AM 77.0 °F 30.9 °F 19% 29.88 in 10.0 mi SE 5.8 mph - N/A   Clear
10:53 AM 80.1 °F 30.9 °F 17% 29.86 in 10.0 mi SSE 10.4 mph - N/A   Clear
11:53 AM 82.0 °F 30.0 °F 15% 29.84 in 10.0 mi SE 8.1 mph - N/A   Clear
12:53 PM 86.0 °F 30.0 °F 13% 29.82 in 10.0 mi South 16.1 mph 27.6 mph N/A   Clear
1:53 PM 84.9 °F 30.0 °F 14% 29.80 in 10.0 mi South 9.2 mph 24.2 mph N/A   Clear
2:53 PM 87.1 °F 28.9 °F 12% 29.76 in 10.0 mi SSW 8.1 mph 18.4 mph N/A   Clear
3:53 PM 88.0 °F 28.0 °F 12% 29.73 in 10.0 mi Variable 3.5 mph - N/A   Clear
4:53 PM 87.1 °F 28.9 °F 12% 29.72 in 10.0 mi WSW 11.5 mph - N/A   Clear
5:53 PM 87.1 °F 30.0 °F 13% 29.71 in 10.0 mi WSW 10.4 mph - N/A   Clear
6:53 PM 84.9 °F 24.1 °F 11% 29.71 in 10.0 mi WSW 13.8 mph - N/A   Clear
7:53 PM 81.0 °F 24.1 °F 12% 29.72 in 10.0 mi SW 10.4 mph - N/A   Clear
8:53 PM 78.1 °F 25.0 °F 14% 29.73 in 10.0 mi SSW 6.9 mph - N/A   Clear
9:53 PM 75.0 °F 26.1 °F 16% 29.73 in 10.0 mi SW 4.6 mph - N/A   Clear
10:53 PM 73.9 °F 28.0 °F 18% 29.74 in 10.0 mi WSW 6.9 mph - N/A   Clear
11:53 PM 73.9 °F 30.0 °F 20% 29.74 in 10.0 mi SW 11.5 mph - N/A   Clear